DW6619 Weather Reports


Display with metric or nautical units.
time (UTC)temp
F
wind
direction
speed
MPH
gust
MPH
rain 1hr
in
rain 24hr
in
rain mn
in
humidity
%
barometer
mb
20260508170021 70 184 0.0 4.0 0.00 0.01 0.00 41 1013.9
20260508164518 69 182 0.0 5.0 0.00 0.01 0.00 39 1014.3
20260508163016 70 205 0.0 0.0 0.00 0.01 0.00 38 1014.4
20260508161512 70 203 1.0 6.0 0.00 0.01 0.00 40 1014.8
20260508160033 70 117 0.0 8.0 0.00 0.01 0.00 40 1014.9
20260508154528 69 232 0.0 0.0 0.00 0.01 0.00 43 1015.0
20260508153042 67 171 0.0 0.0 0.00 0.01 0.00 41 1015.1
20260508151512 67 71 0.0 1.0 0.00 0.01 0.00 40 1015.2
20260508150033 67 294 0.0 0.0 0.00 0.01 0.00 41 1015.4
20260508144523 67 213 0.0 3.0 0.00 0.01 0.00 40 1015.6
20260508143016 66 74 0.0 0.0 0.00 0.01 0.00 46 1015.6
20260508141536 64 305 0.0 0.0 0.00 0.01 0.00 49 1015.6
20260508140055 64 231 0.0 0.0 0.00 0.01 0.00 47 1015.7
20260508134530 63 117 0.0 0.0 0.00 0.01 0.00 51 1015.8
20260508133023 61 196 0.0 0.0 0.00 0.01 0.00 54 1015.9
20260508131542 60 184 0.0 0.0 0.00 0.01 0.00 57 1016.0
20260508130009 57 217 0.0 0.0 0.00 0.01 0.00 65 1016.2
20260508124525 54 188 0.0 0.0 0.00 0.01 0.00 72 1016.2
20260508123019 51 214 0.0 0.0 0.00 0.01 0.00 84 1016.1
20260508121517 47 230 0.0 0.0 0.00 0.01 0.00 88 1016.1
20260508120009 45 207 0.0 0.0 0.00 0.01 0.00 88 1015.9
20260508114528 44 216 0.0 0.0 0.00 0.01 0.00 88 1015.8
20260508113024 42 213 0.0 0.0 0.00 0.01 0.00 88 1015.6
20260508111521 41 216 0.0 0.0 0.00 0.01 0.00 88 1015.4
20260508110016 41 216 0.0 0.0 0.00 0.01 0.00 88 1015.1
20260508104514 41 216 0.0 0.0 0.00 0.01 0.00 88 1014.9
20260508103031 42 216 0.0 0.0 0.00 0.01 0.00 88 1014.7
20260508101527 42 216 0.0 0.0 0.00 0.01 0.00 87 1014.5
20260508100025 43 216 0.0 0.0 0.00 0.01 0.00 87 1014.4
20260508094524 44 216 0.0 0.0 0.00 0.01 0.00 87 1014.1
20260508093011 43 216 0.0 0.0 0.00 0.01 0.00 83 1014.2
20260508091535 43 216 0.0 0.0 0.00 0.01 0.00 77 1014.3
20260508090032 44 216 0.0 0.0 0.00 0.01 0.00 75 1014.3
20260508084522 45 216 0.0 0.0 0.00 0.01 0.00 73 1014.1
20260508083018 45 216 0.0 0.0 0.00 0.01 0.00 73 1013.9
20260508081517 45 216 0.0 0.0 0.00 0.01 0.00 73 1013.8
20260508080027 45 40 0.0 0.0 0.00 0.01 0.00 75 1013.7
20260508074523 45 40 0.0 0.0 0.00 0.01 0.00 75 1013.5
20260508073014 45 225 0.0 0.0 0.00 0.01 0.00 77 1013.3
20260508071512 45 225 0.0 0.0 0.00 0.01 0.00 80 1012.9
20260508070027 46 225 0.0 0.0 0.00 0.01 0.00 83 1012.8
20260508064540 46 225 0.0 0.0 0.00 0.01 0.00 82 1012.8
20260508063016 47 225 0.0 0.0 0.00 0.01 0.00 82 1012.5
20260508061513 47 225 0.0 0.0 0.00 0.01 0.00 84 1012.5
20260508060033 47 267 0.0 0.0 0.00 0.03 0.00 87 1012.4
20260508054510 47 270 0.0 0.0 0.00 0.03 0.00 88 1012.5
20260508053028 48 273 0.0 0.0 0.00 0.03 0.00 88 1012.5
20260508051524 48 273 0.0 0.0 0.00 0.03 0.00 88 1012.4
20260508050016 49 271 0.0 0.0 0.00 0.10 0.00 88 1012.3
20260508044510 49 198 0.0 0.0 0.00 0.10 0.00 88 1012.1
20260508043048 50 213 0.0 0.0 0.00 0.10 0.00 88 1011.9
20260508041521 50 213 0.0 0.0 0.00 0.10 0.00 88 1011.8
20260508040021 49 236 0.0 0.0 0.00 0.14 0.10 88 1011.7
20260508034511 49 229 0.0 0.0 0.00 0.14 0.10 87 1011.5
20260508033010 49 235 0.0 0.0 0.00 0.14 0.10 87 1011.4
20260508031526 50 213 0.0 0.0 0.00 0.14 0.10 87 1011.4
20260508030020 50 244 0.0 0.0 0.00 0.14 0.10 87 1011.3
20260508024537 50 257 0.0 0.0 0.00 0.14 0.10 86 1011.3
20260508023032 50 259 0.0 0.0 0.00 0.14 0.10 85 1011.2
20260508021509 51 253 0.0 0.0 0.00 0.14 0.10 84 1011.2
20260508020012 51 229 0.0 0.0 0.00 0.14 0.10 83 1011.1
20260508014527 51 225 0.0 0.0 0.00 0.14 0.10 81 1011.1
20260508013020 52 225 0.0 0.0 0.00 0.14 0.10 79 1010.8
20260508011538 53 225 0.0 0.0 0.00 0.14 0.10 78 1010.7
20260508010014 53 228 0.0 0.0 0.00 0.14 0.10 77 1010.5
20260508004510 54 203 0.0 0.0 0.00 0.14 0.10 75 1010.2
20260508003009 55 207 0.0 0.0 0.00 0.14 0.10 74 1010.2
20260508001530 56 255 0.0 0.0 0.00 0.14 0.10 72 1010.0
20260508000046 56 236 0.0 0.0 0.00 0.14 0.10 71 1009.9
20260507234548 57 179 0.0 6.0 0.00 0.14 0.10 69 1009.6
20260507233028 58 222 0.0 2.0 0.00 0.14 0.10 67 1009.2
20260507231517 59 144 0.0 6.0 0.00 0.14 0.10 66 1009.1
20260507230013 60 204 0.0 0.0 0.00 0.14 0.10 64 1009.0
20260507224511 60 205 0.0 0.0 0.00 0.14 0.10 61 1008.8
20260507223048 61 200 0.0 0.0 0.00 0.14 0.10 59 1008.7
20260507221523 63 169 0.0 0.0 0.00 0.14 0.10 57 1008.7
20260507220022 64 190 0.0 0.0 0.00 0.14 0.10 55 1008.6
20260507214523 66 175 0.0 2.0 0.00 0.14 0.10 54 1008.6
20260507213021 66 187 0.0 3.0 0.00 0.14 0.10 54 1008.6
20260507211538 66 249 0.0 0.0 0.00 0.14 0.10 55 1008.6
20260507210034 66 190 0.0 5.0 0.00 0.14 0.10 54 1008.7
20260507204509 65 182 0.0 0.0 0.00 0.14 0.10 57 1008.8
20260507203027 65 192 0.0 0.0 0.00 0.14 0.10 58 1008.9
20260507201523 65 205 0.0 0.0 0.00 0.14 0.10 57 1008.7
20260507200042 65 148 0.0 0.0 0.00 0.14 0.10 58 1008.9
20260507194518 65 213 0.0 0.0 0.00 0.14 0.10 55 1008.9
20260507193014 64 199 0.0 0.0 0.00 0.14 0.10 59 1009.1
20260507191512 63 215 0.0 4.0 0.00 0.14 0.10 59 1009.2
20260507190028 63 153 0.0 4.0 0.00 0.14 0.10 58 1009.6
20260507184523 63 190 0.0 4.0 0.00 0.14 0.10 57 1009.6
20260507183039 63 139 0.0 0.0 0.00 0.14 0.10 61 1009.7
20260507181510 62 215 0.0 0.0 0.01 0.14 0.10 54 1009.7
20260507180021 62 19 0.0 0.0 0.01 0.14 0.10 58 1010.3
20260507174515 61 115 0.0 0.0 0.01 0.14 0.10 53 1010.4
20260507173013 61 151 0.0 0.0 0.01 0.14 0.10 56 1010.4
20260507171512 60 143 0.0 0.0 0.00 0.13 0.09 61 1010.7